EW6819 Weather Reports


time (UTC)temp
C
wind
direction
speed
KPH
gust
KPH
rain 1hr
cm
rain 24hr
cm
rain mn
cm
humidity
%
barometer
mb
20260906220503 18 334 6.4 14.5 0.00 0.03 0.03 54 1019.1
20260906220214 18 338 6.4 14.5 0.00 0.03 0.03 53 1019.1
20260906215503 18 351 3.2 14.5 0.00 0.03 0.03 53 1019.1
20260906215003 18 344 4.8 11.3 0.00 0.03 0.03 52 1019.0
20260906214503 18 348 6.4 14.5 0.00 0.03 0.03 52 1019.0
20260906214214 18 355 8.0 14.5 0.00 0.03 0.03 52 1019.1
20260906213503 18 350 6.4 17.7 0.00 0.03 0.03 51 1019.1
20260906213003 18 355 6.4 17.7 0.00 0.03 0.03 50 1019.2
20260906212713 18 350 6.4 17.7 0.00 0.03 0.03 51 1019.1
20260906212214 18 347 8.0 19.3 0.00 0.03 0.03 50 1019.2
20260906211503 18 331 6.4 19.3 0.00 0.03 0.03 50 1019.1
20260906211003 18 338 6.4 17.7 0.00 0.03 0.03 51 1019.0
20260906210712 18 347 6.4 17.7 0.00 0.03 0.03 51 1019.0
20260906210003 19 341 8.0 24.1 0.00 0.03 0.03 51 1018.9
20260906205712 19 345 9.7 24.1 0.00 0.03 0.03 50 1018.9
20260906205003 19 347 8.0 24.1 0.00 0.03 0.03 51 1018.9
20260906204503 19 347 6.4 20.9 0.00 0.03 0.03 51 1018.9
20260906204213 20 349 6.4 20.9 0.00 0.03 0.03 51 1018.8
20260906203503 20 359 8.0 16.1 0.00 0.03 0.03 49 1019.0
20260906203003 20 9 9.7 17.7 0.00 0.03 0.03 50 1019.0
20260906202712 20 8 9.7 17.7 0.00 0.03 0.03 50 1018.8
20260906202213 20 6 11.3 20.9 0.00 0.03 0.03 50 1018.9
20260906201503 20 354 8.0 20.9 0.00 0.03 0.03 49 1018.8
20260906201003 20 348 8.0 20.9 0.00 0.03 0.03 49 1018.8
20260906200503 21 352 8.0 17.7 0.00 0.03 0.03 50 1018.9
20260906200213 21 359 8.0 19.3 0.00 0.03 0.03 48 1018.8
20260906195503 21 6 8.0 19.3 0.00 0.03 0.03 50 1018.8
20260906195003 21 11 8.0 22.5 0.00 0.03 0.03 49 1018.8
20260906194503 21 5 9.7 22.5 0.00 0.03 0.03 49 1018.7
20260906194003 20 3 9.7 24.1 0.00 0.03 0.03 52 1018.7
20260906193503 21 5 8.0 24.1 0.00 0.03 0.03 51 1018.8
20260906193003 20 9 6.4 19.3 0.00 0.03 0.03 48 1018.7
20260906192503 20 12 6.4 19.3 0.00 0.03 0.03 51 1018.6
20260906192003 20 352 8.0 19.3 0.00 0.03 0.03 50 1018.6
20260906191503 20 360 8.0 19.3 0.00 0.03 0.03 47 1018.5
20260906191003 20 10 8.0 17.7 0.00 0.03 0.03 51 1018.4
20260906190714 20 6 8.0 17.7 0.00 0.03 0.03 49 1018.5
20260906190003 20 13 8.0 19.3 0.00 0.03 0.03 52 1018.5
20260906185503 20 18 6.4 19.3 0.00 0.03 0.03 53 1018.7
20260906185003 20 33 6.4 14.5 0.00 0.03 0.03 53 1018.6
20260906184503 20 29 6.4 14.5 0.00 0.03 0.03 52 1018.6
20260906184003 20 27 9.7 20.9 0.00 0.03 0.03 51 1018.7
20260906183714 20 27 9.7 20.9 0.00 0.03 0.03 51 1018.6
20260906183003 20 20 8.0 20.9 0.00 0.03 0.03 54 1018.7
20260906182503 20 14 6.4 17.7 0.00 0.03 0.03 52 1018.8
20260906182003 20 21 4.8 17.7 0.00 0.03 0.03 51 1018.7
20260906181503 20 26 8.0 20.9 0.00 0.03 0.03 52 1018.7
20260906181003 20 20 9.7 20.9 0.00 0.03 0.03 53 1018.7
20260906180503 20 17 8.0 19.3 0.00 0.03 0.03 52 1018.7
20260906180004 20 25 6.4 19.3 0.00 0.03 0.03 51 1018.8
20260906175503 20 40 9.7 19.3 0.00 0.03 0.03 52 1018.7
20260906175003 20 28 11.3 20.9 0.00 0.03 0.03 51 1018.7
20260906174713 20 11 9.7 20.9 0.00 0.03 0.03 53 1018.6
20260906174212 20 15 11.3 20.9 0.00 0.03 0.03 53 1018.7
20260906173503 20 14 9.7 20.9 0.00 0.03 0.03 53 1018.7
20260906173003 20 25 8.0 20.9 0.00 0.03 0.03 52 1018.7
20260906172503 20 20 8.0 22.5 0.00 0.03 0.03 53 1018.8
20260906172003 20 21 9.7 22.5 0.00 0.03 0.03 55 1018.7
20260906171503 20 13 8.0 19.3 0.00 0.03 0.03 54 1018.7
20260906171003 20 15 8.0 22.5 0.00 0.03 0.03 53 1018.8
20260906170713 20 19 8.0 22.5 0.00 0.03 0.03 53 1018.7
20260906170003 20 25 6.4 19.3 0.00 0.03 0.03 55 1018.8
20260906165503 20 9 8.0 19.3 0.00 0.03 0.03 56 1018.9
20260906165003 20 18 11.3 24.1 0.00 0.03 0.03 54 1018.8
20260906164503 20 23 11.3 24.1 0.00 0.03 0.03 55 1018.6
20260906164003 20 11 9.7 19.3 0.00 0.03 0.03 55 1018.6
20260906163713 20 5 9.7 19.3 0.00 0.03 0.03 55 1018.6
20260906163003 20 17 9.7 19.3 0.00 0.03 0.03 55 1018.6
20260906162713 20 18 8.0 19.3 0.00 0.03 0.03 55 1018.7
20260906162003 20 13 6.4 17.7 0.00 0.03 0.03 56 1018.7
20260906161503 20 9 4.8 16.1 0.00 0.03 0.03 57 1018.8
20260906161003 19 20 6.4 17.7 0.00 0.03 0.03 56 1018.7
20260906160503 19 8 9.7 20.9 0.00 0.03 0.03 58 1018.7
20260906160214 19 359 9.7 20.9 0.00 0.03 0.03 57 1018.7
20260906155503 19 3 8.0 24.1 0.00 0.03 0.03 57 1018.7
20260906155003 18 23 8.0 24.1 0.00 0.03 0.03 57 1018.9
20260906154713 18 21 8.0 20.9 0.00 0.03 0.03 58 1018.9
20260906154003 18 17 8.0 20.9 0.00 0.03 0.03 57 1019.0
20260906153503 18 15 8.0 20.9 0.00 0.03 0.03 58 1018.9
20260906153003 18 10 6.4 20.9 0.00 0.03 0.03 57 1019.0
20260906152503 17 6 6.4 17.7 0.00 0.03 0.03 57 1018.9
20260906152003 17 4 8.0 20.9 0.00 0.03 0.03 57 1019.0
20260906151503 17 10 8.0 20.9 0.00 0.03 0.03 57 1018.9
20260906151213 17 7 8.0 20.9 0.00 0.03 0.03 57 1018.9
20260906150503 17 360 8.0 20.9 0.00 0.03 0.03 56 1019.0
20260906150213 17 358 8.0 20.9 0.00 0.03 0.03 56 1018.9
20260906145503 17 6 6.4 19.3 0.00 0.03 0.03 54 1018.9
20260906145003 16 5 6.4 17.7 0.00 0.03 0.03 54 1018.8
20260906144714 16 8 6.4 19.3 0.00 0.03 0.03 54 1018.8
20260906144003 16 6 6.4 19.3 0.00 0.03 0.03 54 1018.8
20260906143503 16 2 4.8 14.5 0.00 0.03 0.03 54 1018.7
20260906143003 16 356 4.8 12.9 0.00 0.03 0.03 55 1018.8
20260906142503 16 356 4.8 16.1 0.00 0.03 0.03 54 1018.7
20260906142003 16 357 4.8 16.1 0.00 0.03 0.03 56 1018.7
20260906141503 16 353 4.8 12.9 0.00 0.03 0.03 56 1018.7
20260906141213 16 347 4.8 12.9 0.00 0.03 0.03 56 1018.7
20260906140503 16 349 6.4 12.9 0.03 0.03 0.03 56 1018.7
20260906140213 16 356 6.4 14.5 0.03 0.03 0.03 57 1018.6
20260906135503 16 357 6.4 17.7 0.03 0.03 0.03 57 1018.5
20260906135003 16 3 6.4 17.7 0.03 0.03 0.03 57 1018.5
20260906134503 16 15 6.4 19.3 0.03 0.03 0.03 57 1018.5
20260906134003 16 11 6.4 19.3 0.03 0.03 0.03 57 1018.5
20260906133503 16 2 6.4 20.9 0.03 0.03 0.03 57 1018.4
20260906133003 16 3 8.0 20.9 0.03 0.03 0.03 57 1018.4
20260906132503 16 2 8.0 20.9 0.03 0.03 0.03 58 1018.3
20260906132213 16 3 11.3 24.1 0.03 0.03 0.03 57 1018.4
20260906131503 16 12 8.0 24.1 0.03 0.03 0.03 57 1018.3
20260906131003 16 359 8.0 17.7 0.03 0.03 0.03 57 1018.2
20260906130503 16 1 8.0 19.3 0.00 0.00 0.00 57 1018.4
20260906130003 16 8 8.0 22.5 0.00 0.00 0.00 59 1018.3
20260906125503 16 8 8.0 22.5 0.00 0.00 0.00 59 1018.1
20260906125003 16 357 8.0 19.3 0.00 0.00 0.00 59 1018.1
20260906124503 16 7 9.7 20.9 0.00 0.00 0.00 59 1018.1
20260906124003 16 16 9.7 20.9 0.00 0.00 0.00 61 1018.0
20260906123503 16 9 6.4 16.1 0.00 0.00 0.00 62 1017.9
20260906123003 16 15 4.8 12.9 0.00 0.00 0.00 62 1017.9
20260906122503 16 12 4.8 12.9 0.00 0.00 0.00 62 1018.0
20260906122003 16 10 4.8 12.9 0.00 0.00 0.00 62 1018.1
20260906121713 16 3 4.8 12.9 0.00 0.00 0.00 62 1018.1
20260906121003 16 338 6.4 12.9 0.00 0.00 0.00 62 1017.9
20260906120503 16 322 6.4 16.1 0.00 0.00 0.00 62 1017.9
20260906120212 16 320 8.0 16.1 0.00 0.00 0.00 62 1017.7
20260906115503 16 314 6.4 14.5 0.00 0.00 0.00 62 1017.6
20260906115003 16 317 4.8 11.3 0.00 0.00 0.00 62 1017.7
20260906114503 16 308 4.8 17.7 0.00 0.00 0.00 62 1017.6
20260906114214 16 303 4.8 17.7 0.00 0.00 0.00 62 1017.6
20260906113503 15 306 4.8 12.9 0.00 0.00 0.00 62 1017.5
20260906113003 15 329 3.2 14.5 0.00 0.00 0.00 62 1017.4
20260906112503 15 353 3.2 14.5 0.00 0.00 0.00 61 1017.3
20260906112003 15 340 3.2 12.9 0.00 0.00 0.00 61 1017.3
20260906111503 15 317 3.2 12.9 0.00 0.00 0.00 61 1017.1
20260906111003 15 314 1.6 12.9 0.00 0.00 0.00 60 1017.1
20260906110503 15 29 0.0 4.8 0.00 0.00 0.00 60 1017.1
20260906110003 15 8 1.6 6.4 0.00 0.00 0.00 60 1017.1
20260906105503 15 1 3.2 6.4 0.00 0.00 0.00 60 1017.0
20260906105214 15 360 3.2 6.4 0.00 0.00 0.00 59 1017.0
20260906104503 15 355 1.6 6.4 0.00 0.00 0.00 59 1016.8
20260906104003 15 338 3.2 11.3 0.00 0.00 0.00 59 1016.9
20260906103503 15 328 4.8 12.9 0.00 0.00 0.00 59 1016.8
20260906103003 16 309 4.8 12.9 0.00 0.00 0.00 59 1016.7
20260906102503 16 303 6.4 14.5 0.00 0.00 0.00 59 1016.7
20260906102003 16 304 3.2 14.5 0.00 0.00 0.00 59 1016.7
20260906101713 16 303 3.2 8.0 0.00 0.00 0.00 59 1016.8
20260906101003 16 299 3.2 8.0 0.00 0.00 0.00 59 1016.7
20260906100503 15 291 3.2 9.7 0.00 0.00 0.00 59 1016.5
20260906100004 15 278 4.8 9.7 0.00 0.00 0.00 59 1016.5
20260906095503 15 284 4.8 12.9 0.00 0.00 0.00 59 1016.5
20260906095003 16 288 4.8 12.9 0.00 0.00 0.00 59 1016.6
20260906094503 15 287 3.2 9.7 0.00 0.00 0.00 59 1016.5
20260906094003 15 288 3.2 9.7 0.00 0.00 0.00 59 1016.4
20260906093503 15 284 3.2 9.7 0.00 0.00 0.00 59 1016.5
20260906093003 15 286 3.2 9.7 0.00 0.00 0.00 59 1016.4
20260906092503 15 279 3.2 9.7 0.00 0.00 0.00 58 1016.3
20260906092003 15 270 3.2 9.7 0.00 0.00 0.00 57 1016.4
20260906091503 15 266 3.2 6.4 0.00 0.00 0.00 57 1016.2
20260906091003 15 268 3.2 9.7 0.00 0.00 0.00 57 1016.2
20260906090503 15 273 3.2 9.7 0.00 0.00 0.00 57 1016.0
20260906090213 15 269 3.2 6.4 0.00 0.00 0.00 57 1016.1
20260906085503 15 272 3.2 9.7 0.00 0.00 0.00 57 1015.9
20260906085003 15 287 1.6 9.7 0.00 0.00 0.00 56 1016.0
20260906084503 15 305 0.0 4.8 0.00 0.00 0.00 56 1015.9
20260906084003 15 304 0.0 4.8 0.00 0.00 0.00 56 1015.8
20260906083503 15 293 0.0 4.8 0.00 0.00 0.00 56 1015.8
20260906083213 16 293 0.0 4.8 0.00 0.00 0.00 56 1015.7
20260906082503 16 292 0.0 1.6 0.00 0.00 0.00 56 1015.8
20260906082003 16 293 0.0 4.8 0.00 0.00 0.00 56 1015.8
20260906081503 16 295 1.6 4.8 0.00 0.00 0.00 56 1015.8
20260906081003 16 290 1.6 4.8 0.00 0.00 0.00 56 1015.8
20260906080503 16 271 1.6 4.8 0.00 0.00 0.00 56 1015.7
20260906080003 16 254 0.0 4.8 0.00 0.00 0.00 56 1015.7
20260906075714 16 252 0.0 4.8 0.00 0.00 0.00 56 1015.8
20260906075003 16 0 0.0 0.0 0.00 0.00 0.00 56 1015.8
20260906074503 16 0 0.0 0.0 0.00 0.00 0.00 56 1015.8
20260906074003 16 332 0.0 4.8 0.00 0.00 0.00 56 1015.7
20260906073503 16 330 1.6 4.8 0.00 0.00 0.00 56 1015.7
20260906073003 16 330 1.6 6.4 0.00 0.00 0.00 56 1015.7
20260906072713 16 332 1.6 6.4 0.00 0.00 0.00 56 1015.7
20260906072003 16 329 0.0 4.8 0.00 0.00 0.00 56 1015.8
20260906071503 16 331 1.6 4.8 0.00 0.00 0.00 56 1015.6
20260906071003 16 320 3.2 9.7 0.00 0.00 0.00 56 1015.7
20260906070503 16 314 3.2 9.7 0.00 0.00 0.00 56 1015.7
20260906070003 16 319 3.2 9.7 0.00 0.00 0.00 56 1015.6
20260906065503 16 316 3.2 8.0 0.00 0.00 0.00 56 1015.7
20260906065003 16 290 1.6 9.7 0.00 0.00 0.00 56 1015.7
20260906064503 16 285 1.6 9.7 0.00 0.00 0.00 56 1015.7
20260906064003 16 327 1.6 9.7 0.00 0.00 0.00 56 1015.7
20260906063713 16 6 1.6 4.8 0.00 0.00 0.00 55 1015.7
20260906063003 17 317 1.6 4.8 0.00 0.00 0.00 55 1015.7
20260906062503 17 323 1.6 8.0 0.00 0.00 0.00 55 1015.8
20260906062003 17 334 3.2 8.0 0.00 0.00 0.00 55 1015.8
20260906061503 17 328 3.2 14.5 0.00 0.00 0.00 55 1015.8
20260906061003 17 333 4.8 14.5 0.00 0.00 0.00 55 1015.7
20260906060503 17 337 3.2 12.9 0.00 0.00 0.00 56 1015.8
20260906060003 17 336 1.6 8.0 0.00 0.00 0.00 56 1015.9
20260906055503 17 348 3.2 12.9 0.00 0.00 0.00 56 1015.7
20260906055003 16 337 4.8 12.9 0.00 0.00 0.00 56 1015.8
20260906054503 16 313 3.2 11.3 0.00 0.00 0.00 56 1015.8
20260906054003 16 289 3.2 9.7 0.00 0.00 0.00 56 1015.8
20260906053503 16 245 0.0 6.4 0.00 0.00 0.00 56 1016.0
20260906053003 16 52 1.6 8.0 0.00 0.00 0.00 55 1016.0
20260906052503 16 42 3.2 8.0 0.00 0.00 0.00 56 1016.0
20260906052003 16 277 0.0 4.8 0.00 0.00 0.00 56 1016.0
20260906051503 16 269 0.0 1.6 0.00 0.00 0.00 56 1015.9
20260906051003 16 270 0.0 4.8 0.00 0.00 0.00 56 1015.8
20260906050503 16 270 1.6 4.8 0.00 0.00 0.00 56 1015.9
20260906050003 16 270 1.6 3.2 0.00 0.00 0.00 56 1016.0
20260906045503 16 270 1.6 3.2 0.00 0.00 0.00 57 1015.9
20260906045003 16 270 0.0 3.2 0.00 0.00 0.00 57 1016.0
20260906044503 16 0 0.0 0.0 0.00 0.00 0.00 57 1015.9
20260906044003 15 0 0.0 0.0 0.00 0.00 0.00 57 1015.9
20260906043503 15 0 0.0 0.0 0.00 0.00 0.00 57 1015.9
20260906043003 15 0 0.0 0.0 0.00 0.00 0.00 57 1016.0
20260906042503 15 0 0.0 0.0 0.00 0.00 0.00 57 1015.9
20260906042003 15 0 0.0 0.0 0.00 0.00 0.00 57 1015.8
20260906041712 15 0 0.0 0.0 0.00 0.00 0.00 57 1015.7
20260906041003 15 0 0.0 0.0 0.00 0.00 0.00 57 1015.7
20260906040503 15 0 0.0 0.0 0.00 0.00 0.00 57 1015.8
20260906040003 15 0 0.0 0.0 0.00 0.00 0.00 57 1015.8
20260906035503 15 269 0.0 3.2 0.00 0.00 0.00 57 1015.8
20260906035003 15 269 1.6 4.8 0.00 0.00 0.00 57 1015.7
20260906034503 15 269 3.2 4.8 0.00 0.00 0.00 58 1015.8
20260906034003 15 270 3.2 4.8 0.00 0.00 0.00 58 1015.7
20260906033503 15 271 3.2 4.8 0.00 0.00 0.00 58 1015.7
20260906033003 15 272 3.2 4.8 0.00 0.00 0.00 58 1015.6
20260906032714 15 272 3.2 4.8 0.00 0.00 0.00 58 1015.6
20260906032003 15 273 3.2 4.8 0.00 0.00 0.00 58 1015.6
20260906031503 15 280 3.2 6.4 0.00 0.00 0.00 58 1015.7
20260906031213 15 284 3.2 6.4 0.00 0.00 0.00 58 1015.7
20260906030503 15 290 3.2 4.8 0.00 0.00 0.00 58 1015.6
20260906030003 15 290 3.2 4.8 0.00 0.00 0.00 58 1015.6
20260906025503 15 287 3.2 4.8 0.00 0.00 0.00 58 1015.6
20260906025213 15 279 3.2 4.8 0.00 0.00 0.00 58 1015.7
20260906024503 16 265 1.6 4.8 0.00 0.00 0.00 58 1015.6
20260906024003 16 265 3.2 4.8 0.00 0.00 0.00 58 1015.4
20260906023714 16 265 3.2 4.8 0.00 0.00 0.00 58 1015.5
20260906023003 16 271 3.2 6.4 0.00 0.00 0.00 58 1015.4
20260906022503 16 273 4.8 6.4 0.00 0.00 0.00 58 1015.4
20260906022003 16 274 4.8 6.4 0.00 0.00 0.00 58 1015.5
20260906021503 16 290 4.8 6.4 0.00 0.00 0.00 58 1015.5
20260906021212 16 306 3.2 6.4 0.00 0.00 0.00 57 1015.5
20260906020503 16 315 3.2 8.0 0.00 0.00 0.00 57 1015.4
20260906020003 16 318 3.2 8.0 0.00 0.00 0.00 57 1015.2
20260906015713 16 319 3.2 8.0 0.00 0.00 0.00 57 1015.2
20260906015004 16 302 4.8 9.7 0.00 0.00 0.00 57 1015.2
20260906014713 16 295 4.8 9.7 0.00 0.00 0.00 58 1015.2
20260906014003 16 287 3.2 14.5 0.00 0.00 0.00 58 1015.2
20260906013713 16 289 4.8 14.5 0.00 0.00 0.00 58 1015.2
20260906013003 16 306 3.2 11.3 0.00 0.00 0.00 58 1015.3
20260906012713 16 306 3.2 11.3 0.00 0.00 0.00 58 1015.2
20260906012003 16 290 0.0 6.4 0.00 0.00 0.00 59 1015.2
20260906011713 16 349 0.0 1.6 0.00 0.00 0.00 59 1015.2
20260906011003 16 350 1.6 3.2 0.00 0.00 0.00 59 1015.3
20260906010713 16 350 1.6 3.2 0.00 0.00 0.00 59 1015.3
20260906010003 16 333 1.6 4.8 0.00 0.00 0.00 59 1015.2
20260906005503 16 313 3.2 6.4 0.00 0.00 0.00 59 1015.1
20260906005214 16 318 1.6 6.4 0.00 0.00 0.00 59 1015.1
20260906004503 16 342 1.6 6.4 0.00 0.00 0.00 59 1015.1
20260906004003 16 20 1.6 6.4 0.00 0.00 0.00 60 1015.0
20260906003503 16 38 1.6 6.4 0.00 0.00 0.00 60 1015.0
20260906003003 16 304 0.0 6.4 0.00 0.00 0.00 60 1014.9
20260906002503 16 269 1.6 6.4 0.00 0.00 0.00 60 1014.9
20260906002003 16 266 1.6 6.4 0.00 0.00 0.00 60 1014.9
20260906001503 16 261 3.2 11.3 0.00 0.00 0.00 60 1014.9
20260906001003 16 262 4.8 11.3 0.00 0.00 0.00 60 1014.8
20260906000713 16 264 4.8 11.3 0.00 0.00 0.00 61 1014.8
20260906000003 16 270 1.6 6.4 0.00 0.00 0.00 62 1014.8
20260905235503 17 283 1.6 4.8 0.00 0.00 0.00 62 1014.8
20260905235003 17 290 3.2 6.4 0.00 0.00 0.00 63 1014.9
20260905234503 17 299 3.2 6.4 0.00 0.00 0.00 63 1014.9
20260905234214 17 292 3.2 6.4 0.00 0.00 0.00 63 1014.9
20260905233503 17 263 3.2 6.4 0.00 0.00 0.00 63 1014.9
20260905233003 17 256 3.2 6.4 0.00 0.00 0.00 63 1015.0
20260905232712 17 268 3.2 6.4 0.00 0.00 0.00 63 1015.0
20260905232003 17 298 3.2 6.4 0.00 0.00 0.00 62 1014.9
20260905231503 18 298 3.2 6.4 0.00 0.00 0.00 62 1014.9
20260905231003 18 304 3.2 11.3 0.00 0.00 0.00 61 1015.0
20260905230503 18 309 3.2 12.9 0.00 0.00 0.00 61 1014.9
20260905230003 18 310 3.2 12.9 0.00 0.00 0.00 61 1014.9
20260905225503 18 313 3.2 6.4 0.00 0.00 0.00 60 1014.9
20260905225003 18 311 1.6 6.4 0.00 0.00 0.00 60 1014.9
20260905224503 18 308 1.6 8.0 0.00 0.00 0.00 60 1015.0
20260905224003 18 310 3.2 8.0 0.00 0.00 0.00 59 1014.9
20260905223503 18 298 3.2 6.4 0.00 0.00 0.00 59 1014.9
20260905223003 19 300 3.2 6.4 0.00 0.00 0.00 58 1014.8
20260905222714 19 299 3.2 11.3 0.00 0.00 0.00 58 1014.7
20260905222003 19 278 3.2 11.3 0.00 0.00 0.00 57 1014.8
20260905221503 19 297 4.8 11.3 0.00 0.00 0.00 57 1014.7
20260905221003 20 316 3.2 11.3 0.00 0.00 0.00 56 1014.7